COSMOS 2251 DEB, 39554

Orbit data source: Space-Track

COSMOS 2251 DEB, 39554 is space debris in LEO originally from a launch on Wed, 16 Jun 1993 UTC launched from the Plesetsk Missile And Space Complex (PKMTR). The debris from Iridium 33, an American commercial communications satellite, has been tracked extensively since its accidental collision with the defunct Russian satellite Cosmos 2251 in 2009. This event, occurring at high speed in low Earth orbit (LEO), generated thousands of pieces of space debris, significantly increasing the risk of further collisions. The Iridium 33 debris cloud has impacted space traffic management and orbital debris mitigation strategies, making it a subject of ongoing study in space situational awareness.

Loading next visibility...
Identifier
39554, 1993-036BUL
Orbit
LEO
Country
Flag of CISCIS
Related business
Manufacturer
Unknown
Mission
Spacecraft
Bus & Motor
Unknown
Mass
Unknown
Launch date (UTC)
1993-06-16 (33 years ago)
Launch vehicle
Unknown
Launch site
Plesetsk Missile And Space Complex (PKMTR)
Object type
Payload
Rocket body
Debris
Shape & HBR
Unknown shape, 0.1 m
Radar Cross Section
Small (<0.1 m²)

Expand to show TLE details & history
Last TLE update: 5 days ago

TLE from 5 days ago
0 COSMOS 2251 DEB
1 39554U 93036BUL 26165.90829891  .00110118  00000-0  27929-2 0  9996
2 39554  74.0010 235.9719 0012017 326.5186  33.5260 15.39121344671891
Epoch: 2026-06-14T21:47Z
TLE epoch observation values (Epoch: 2026-06-14T21:47:57.025Z)
Latitude
-0.00006°
Longitude
5.78199°
Altitude
444.602 km
Speed
7.649 km/s
True Right ascension
15h 43m 53s
True Declination
0° 00' 00"
Sunlit
Object was in full shadow at epoch
Visualization orbit readout
Latitude
Unknown
Longitude
Unknown
Altitude
Unknown
Speed
Unknown
Apparent Right ascension
Unknown
Apparent Declination
Unknown
Sunlit
N/A
Visualization observer readout
Local Sidereal Time
04:49:36
Azimuth
Unknown
Elevation
Unknown
Doppler factor
Unknown
Orbital elements
Apogee altitude
454.421 km
Perigee altitude
438.02 km
Semi-major axis
6,824.358 km
Eccentricity
0.0012
Inclination
74.001°
RAAN
235.9719°
Arg. of periapsis
326.5186°
True anomaly
33.60215°
Mean anomaly
33.526°
Eccentric anomaly
33.56407°
Mean motion
3.84991 °/min
Orbital period
93.51 mins
BSTAR
0.0027929

Documentation

Showing up to 5 results
|